When you browse on this site, cookies collect data to enhance your experience and personalize the content and advertising you see.
Visit our Privacy Policy to learn more. By continuing to use the site, you agree to this use of cookies and data.
  • In Hungary
  • List of Countries
  • For 7 days
  • Water Temperature
  • Weather Map
  • News
  • Weather Widgets
  • user-avatar
    Login

    Hourly Weather Capinota

    Today, 15 November, Friday

    Time Temperature Precipitation Wind Pressure Humidity
    00:00 +14°C° 0.5 mm 2 mps 560 mmHg 85%
    01:00 +14°C° 0.5 mm 2 mps 559 mmHg 82%
    02:00 +14°C° 0 mm 2 mps 559 mmHg 80%
    03:00 +14°C° 0 mm 1 mps 559 mmHg 78%
    04:00 +14°C° 0 mm 1 mps 559 mmHg 77%
    05:00 +14°C° 0 mm 1 mps 559 mmHg 75%
    06:00 +15°C° 0 mm 1 mps 559 mmHg 71%
    07:00 +15°C° 0 mm 1 mps 560 mmHg 66%
    08:00 +16°C° 0 mm 1 mps 561 mmHg 62%
    09:00 +18°C° 0 mm 1 mps 561 mmHg 54%
    10:00 +19°C° 0 mm 2 mps 561 mmHg 45%
    11:00 +20°C° 0 mm 2 mps 562 mmHg 37%
    12:00 +21°C° 0 mm 3 mps 562 mmHg 35%
    13:00 +22°C° 0 mm 3 mps 561 mmHg 33%
    14:00 +23°C° 0 mm 4 mps 561 mmHg 31%
    15:00 +23°C° 0 mm 5 mps 560 mmHg 33%
    16:00 +22°C° 0 mm 5 mps 560 mmHg 35%
    17:00 +22°C° 0 mm 6 mps 559 mmHg 37%
    18:00 +21°C° 0 mm 5 mps 560 mmHg 40%
    19:00 +20°C° 0 mm 4 mps 560 mmHg 44%
    20:00 +19°C° 0 mm 3 mps 560 mmHg 48%
    21:00 +18°C° 0 mm 3 mps 560 mmHg 50%
    22:00 +18°C° 0 mm 2 mps 561 mmHg 53%
    23:00 +17°C° 0 mm 2 mps 561 mmHg 56%

    Tomorrow, 16 November, Saturday

    Time Temperature Precipitation Wind Pressure Humidity
    00:00 +17°C° 0 mm 2 mps 560 mmHg 59%
    01:00 +16°C° 0 mm 1 mps 560 mmHg 62%
    02:00 +15°C° 0 mm 1 mps 559 mmHg 66%
    03:00 +15°C° 0 mm 1 mps 559 mmHg 69%
    04:00 +15°C° 0 mm 1 mps 558 mmHg 71%
    05:00 +14°C° 0 mm 1 mps 558 mmHg 74%
    06:00 +14°C° 0 mm 0 mps 559 mmHg 69%
    07:00 +15°C° 0 mm 0 mps 559 mmHg 65%
    08:00 +15°C° 0 mm 0 mps 560 mmHg 60%
    09:00 +19°C° 0 mm 1 mps 560 mmHg 51%
    10:00 +20°C° 0 mm 1 mps 560 mmHg 42%
    11:00 +21°C° 0 mm 2 mps 561 mmHg 33%
    12:00 +22°C° 0 mm 3 mps 561 mmHg 30%
    13:00 +24°C° 0 mm 3 mps 561 mmHg 26%
    14:00 +25°C° 0 mm 4 mps 560 mmHg 22%
    15:00 +25°C° 0 mm 5 mps 560 mmHg 24%
    16:00 +23°C° 0 mm 6 mps 559 mmHg 25%
    17:00 +23°C° 0 mm 7 mps 559 mmHg 27%
    18:00 +22°C° 0 mm 6 mps 559 mmHg 32%
    19:00 +21°C° 0 mm 4 mps 559 mmHg 36%
    20:00 +20°C° 0 mm 3 mps 559 mmHg 41%
    21:00 +19°C° 0 mm 3 mps 559 mmHg 45%
    22:00 +19°C° 0 mm 3 mps 559 mmHg 49%
    23:00 +18°C° 0 mm 3 mps 559 mmHg 53%

    Day after tomorrow, 17 November, Sunday

    Time Temperature Precipitation Wind Pressure Humidity
    00:00 +17°C° 0 mm 2 mps 559 mmHg 57%
    01:00 +17°C° 0 mm 2 mps 559 mmHg 60%
    02:00 +16°C° 0 mm 2 mps 558 mmHg 64%
    03:00 +16°C° 0 mm 2 mps 558 mmHg 66%
    04:00 +15°C° 0 mm 1 mps 558 mmHg 67%
    05:00 +15°C° 0 mm 1 mps 558 mmHg 69%
    06:00 +16°C° 0 mm 1 mps 559 mmHg 65%
    07:00 +16°C° 0 mm 1 mps 559 mmHg 62%
    08:00 +18°C° 0 mm 1 mps 560 mmHg 58%
    09:00 +19°C° 0 mm 1 mps 560 mmHg 50%
    10:00 +20°C° 0 mm 2 mps 560 mmHg 42%
    11:00 +21°C° 0 mm 2 mps 561 mmHg 34%
    12:00 +22°C° 0 mm 3 mps 561 mmHg 31%
    13:00 +23°C° 0 mm 4 mps 560 mmHg 27%
    14:00 +25°C° 0 mm 5 mps 560 mmHg 24%
    15:00 +25°C° 0 mm 5 mps 560 mmHg 25%
    16:00 +23°C° 0 mm 6 mps 559 mmHg 27%
    17:00 +23°C° 0 mm 7 mps 559 mmHg 28%
    18:00 +22°C° 0 mm 6 mps 559 mmHg 32%
    19:00 +21°C° 0 mm 5 mps 559 mmHg 36%
    20:00 +20°C° 0 mm 4 mps 559 mmHg 41%
    21:00 +19°C° 0 mm 3 mps 559 mmHg 46%
    22:00 +18°C° 0 mm 3 mps 560 mmHg 52%
    23:00 +18°C° 0 mm 3 mps 560 mmHg 57%

    18 November, Monday

    Time Temperature Precipitation Wind Pressure Humidity
    00:00 +17°C° 0.1 mm 3 mps 560 mmHg 61%
    01:00 +16°C° 0.1 mm 2 mps 559 mmHg 64%
    02:00 +16°C° 0.1 mm 2 mps 558 mmHg 67%
    03:00 +16°C° 0.1 mm 2 mps 558 mmHg 68%
    04:00 +15°C° 0.1 mm 2 mps 558 mmHg 69%
    05:00 +15°C° 0.1 mm 1 mps 558 mmHg 70%
    06:00 +15°C° 0 mm 1 mps 559 mmHg 66%
    07:00 +16°C° 0 mm 1 mps 559 mmHg 63%
    08:00 +16°C° 0 mm 1 mps 560 mmHg 59%
    09:00 +19°C° 0 mm 1 mps 560 mmHg 53%
    10:00 +20°C° 0 mm 1 mps 561 mmHg 46%
    11:00 +21°C° 0 mm 2 mps 561 mmHg 39%
    12:00 +22°C° 0 mm 3 mps 561 mmHg 35%
    13:00 +23°C° 0 mm 4 mps 561 mmHg 31%
    14:00 +25°C° 0 mm 5 mps 561 mmHg 26%
    15:00 +24°C° 0 mm 6 mps 561 mmHg 29%
    16:00 +23°C° 0 mm 7 mps 560 mmHg 31%
    17:00 +23°C° 0 mm 8 mps 560 mmHg 34%
    18:00 +22°C° 0 mm 8 mps 560 mmHg 38%
    19:00 +21°C° 0 mm 7 mps 560 mmHg 43%
    20:00 +18°C° 0 mm 7 mps 561 mmHg 48%
    21:00 +19°C° 0.1 mm 6 mps 561 mmHg 51%
    22:00 +17°C° 0.1 mm 5 mps 561 mmHg 54%
    23:00 +17°C° 0.1 mm 4 mps 561 mmHg 57%

    19 November, Tuesday

    Time Temperature Precipitation Wind Pressure Humidity
    00:00 +17°C° 0 mm 4 mps 561 mmHg 58%
    01:00 +16°C° 0 mm 3 mps 560 mmHg 59%
    02:00 +16°C° 0 mm 2 mps 560 mmHg 59%
    03:00 +16°C° 0 mm 2 mps 560 mmHg 61%
    04:00 +15°C° 0 mm 1 mps 560 mmHg 62%
    05:00 +15°C° 0 mm 1 mps 560 mmHg 63%
    06:00 +16°C° 0 mm 1 mps 561 mmHg 59%
    07:00 +16°C° 0 mm 2 mps 561 mmHg 56%
    08:00 +17°C° 0 mm 2 mps 562 mmHg 52%
    09:00 +18°C° 0 mm 2 mps 562 mmHg 48%
    10:00 +19°C° 0 mm 3 mps 562 mmHg 44%
    11:00 +20°C° 0 mm 3 mps 563 mmHg 39%
    12:00 +21°C° 0 mm 3 mps 562 mmHg 36%
    13:00 +22°C° 0 mm 4 mps 562 mmHg 33%
    14:00 +23°C° 0 mm 4 mps 562 mmHg 30%
    15:00 +23°C° 0 mm 5 mps 562 mmHg 30%
    16:00 +23°C° 0 mm 6 mps 561 mmHg 30%
    17:00 +23°C° 0 mm 7 mps 561 mmHg 31%
    18:00 +22°C° 0 mm 6 mps 561 mmHg 35%
    19:00 +21°C° 0 mm 5 mps 561 mmHg 39%
    20:00 +20°C° 0 mm 4 mps 561 mmHg 44%
    21:00 +19°C° 0 mm 3 mps 561 mmHg 46%
    22:00 +19°C° 0 mm 3 mps 561 mmHg 49%
    23:00 +18°C° 0 mm 2 mps 562 mmHg 51%

    20 November, Wednesday

    Time Temperature Precipitation Wind Pressure Humidity
    00:00 +18°C° 0 mm 2 mps 561 mmHg 54%
    01:00 +17°C° 0 mm 2 mps 561 mmHg 57%
    02:00 +17°C° 0 mm 2 mps 560 mmHg 59%
    03:00 +16°C° 0 mm 1 mps 560 mmHg 62%
    04:00 +16°C° 0 mm 1 mps 560 mmHg 64%
    05:00 +15°C° 0 mm 1 mps 560 mmHg 66%
    06:00 +16°C° 0 mm 1 mps 560 mmHg 61%
    07:00 +18°C° 0 mm 1 mps 561 mmHg 57%
    08:00 +18°C° 0 mm 1 mps 561 mmHg 52%
    09:00 +20°C° 0 mm 1 mps 562 mmHg 48%
    10:00 +21°C° 0 mm 1 mps 562 mmHg 43%
    11:00 +22°C° 0 mm 1 mps 562 mmHg 39%
    12:00 +23°C° 0 mm 2 mps 562 mmHg 35%
    13:00 +24°C° 0 mm 2 mps 562 mmHg 32%
    14:00 +25°C° 0 mm 3 mps 562 mmHg 28%
    15:00 +25°C° 0 mm 3 mps 561 mmHg 28%
    16:00 +25°C° 0 mm 4 mps 560 mmHg 28%
    17:00 +25°C° 0 mm 4 mps 560 mmHg 28%
    18:00 +23°C° 0 mm 4 mps 560 mmHg 33%
    19:00 +22°C° 0 mm 3 mps 560 mmHg 38%
    20:00 +21°C° 0 mm 3 mps 560 mmHg 43%
    21:00 +20°C° 0 mm 3 mps 560 mmHg 48%
    22:00 +20°C° 0 mm 2 mps 560 mmHg 52%
    23:00 +19°C° 0 mm 2 mps 560 mmHg 56%
    Show more